To NAV CANADA Home Page Login to a new session Search on AWWS site Feedback and Comments Disclaimer Vers la page française équivalente Tips FAQ What's new on the site To the Forecasts and Observations / NOTAM section To "File a Flight Plan" website Publications and other links Update of the User's profile FIC Telephone Numbers My Weather Data Folder Route Weather Data Regional Weather Data Local Weather Data To the Forecasts and Observations / NOTAM section
Request Generated 09/29/2016 at 08:22:15 UTC . Weather information available at that time is displayed.

METAR/TAF

WHALE COVE/NU    

LWIS CYXN 290800Z AUTO 26020G29KT 04/00 A2993=
LWIS CYXN 290700Z AUTO 26026G33KT 04/M00 A2990=
LWIS CYXN 290600Z AUTO 27037G46KT 04/00 A2987=

CYXN - No TAF is issued for this station

Your time UTC time
Weather data provided by Environment Canada and NAV CANADA